sat.trackr.live / text

‹ back to catalog

GPS BIIF-9 (PRN 26)

NORAD 40534 · 2015-013A

PAYLOAD ACTIVE UNKNOWN

§ Identity

Operator
Country
US
Launch date
2015-03-25
Launch site
AFETR
Launch vehicle
Mass (kg)
RCS (m²)
30.74

Purposes: earth_obs, nav

External: N2YO · Heavens-Above · Gunter

§ Orbital elements

Epoch: 2026-05-24T15:04:26.364288Z

Period
718.02 min
Inclination
53.1699°
Eccentricity
0.0109123
Mean motion
2.00552773 rev/d
Perigee alt
19,893.3 km
Apogee alt
20,473.0 km
Semi-major
26,561.3 km
B*
0.0000e+0
RAAN
205.1520°
Arg perigee
40.0333°
Mean anomaly
320.8330°
Rev number
8,135

§ Raw data

GPS BIIF-9  (PRN 26)1 40534U 15013A   26144.62808292  .00000007  00000+0  00000+0 0  99952 40534  53.1699 205.1520 0109123  40.0333 320.8330  2.00552773 81352

JSON: /api/v1/satellites/40534 · /tle

For live sub-satellite position, see the globe view (requires WebGL).

§ Visibility from observer

Set your observer location to see the next 7 days of passes ≥ 10°. The values pass through the URL so the page stays shareable.

No JS? Fill the form by hand. The geolocation button needs JavaScript.